Location: Abundant Grace Fellowship
(35.0349°N, 90.0924°W)
Time: 09:52:36
(UTC+00:00)

SJ 16-02 - Pass Details

Date: 18 January 2026
Orbit: 583 x 594 km, 75.0° (Epoch: 10 February)

Event Time Altitude Azimuth Distance (km) Brightness Sun altitude
Rises 11:28:25 0° 166° (SSE) 2,788 5.1 -20.0°
Reaches altitude 10° 11:30:56 10° 153° (SSE) 1,893 4.4 -19.5°
Maximum altitude 11:34:20 24° 99° (E) 1,220 3.7 -18.8°
Drops below altitude 10° 11:37:45 10° 45° (NE) 1,904 4.3 -18.1°
Sets 11:40:16 0° 31° (NNE) 2,809 5.0 -17.6°
